Date String (YYYY-MM-DD hh:mm:ss) UTC,Instrument flags,absolute air pressure of the measurement (hPa),sample flow rate (lpm),inlet stack bypass flow (lpm),air temperature of the measurement (°C),ambient temperature measured by the external sensor (°C),aerosol sample conditioner tube jacket temperature (°C),OPC LED temperature (°C),internal box temperature (°C),relative humidity of the measurement (%),span deviation,mass concentration of particles derived from Lorenz-Mie calculation of OPC scattering (μg/m³),mass concentration of particles derived from Lorenz-Mie calculation of OPC scattering (μg/m³),mass concentration of particles derived from Lorenz-Mie calculation of OPC scattering (μg/m³)
DateTimeUTC,F1_M11,P_M11,Q1_M11,Q2_M11,T1_M11,T2_M11,T3_M11,T4_M11,T5_M11,U1_M11,ZSPAN_M11,X0_M11,X2_M11,X1_M11
2024-02-09 15:00:00,SystemResetWarning,0822.1,5.00,000.00,018.3,017.6,000.0,026.8,020.0,14.0,0000.0,0007.02,0002.03,0001.25
2024-02-09 15:01:00,SystemResetWarning,0822.1,5.00,000.00,018.3,017.5,000.0,026.9,020.0,13.9,0000.0,0006.39,0001.97,0001.23
2024-02-09 15:02:00,SystemResetWarning,0822.1,5.00,000.00,018.3,017.5,000.0,026.9,020.0,13.9,0000.0,0005.46,0001.88,0001.22
2024-02-09 15:03:00,SystemResetWarning,0822.1,5.00,000.00,018.3,017.5,000.0,026.9,020.0,13.9,0000.0,0005.10,0001.88,0001.21
2024-02-09 15:04:00,SystemResetWarning,0822.0,5.00,000.00,018.3,017.5,000.0,026.9,020.0,14.0,0000.0,0004.51,0001.82,0001.18
2024-02-09 15:05:00,SystemResetWarning,0822.1,5.00,000.00,018.3,017.5,000.0,026.9,020.0,14.0,0000.0,0003.49,0001.77,0001.16
2024-02-09 15:06:00,SystemResetWarning,0822.1,5.00,000.00,018.3,017.5,000.0,026.9,020.0,14.1,0000.0,0003.33,0001.69,0001.16
2024-02-09 15:07:00,SystemResetWarning,0822.1,5.00,000.00,018.3,017.5,000.0,026.9,020.0,14.2,0000.0,0003.32,0001.70,0001.17
2024-02-09 15:08:00,SystemResetWarning,0822.1,5.00,000.00,018.3,017.6,000.0,026.9,020.1,14.5,0000.0,0003.28,0001.68,0001.18
2024-02-09 15:09:00,SystemResetWarning,0822.1,5.01,000.00,018.4,018.1,000.0,027.0,020.4,14.5,0000.0,0003.44,0001.68,0001.20
2024-02-09 15:10:00,SystemResetWarning,0822.2,4.99,000.00,018.6,018.9,000.0,027.1,020.9,14.3,0000.0,0003.41,0001.68,0001.22
2024-02-09 15:11:00,SystemResetWarning,0822.2,4.99,000.00,018.7,018.9,000.0,027.0,020.8,14.3,0000.0,0004.83,0001.66,0001.23
2024-02-09 15:12:00,SystemResetWarning,0822.1,5.01,000.00,018.7,018.8,000.0,026.9,020.7,14.2,0000.0,0005.24,0001.66,0001.24
2024-02-09 15:13:00,SystemResetWarning,0822.2,5.00,000.00,018.7,018.6,000.0,026.9,020.5,14.1,0000.0,0005.96,0001.71,0001.29
2024-02-09 15:14:00,SystemResetWarning,0822.2,5.00,000.00,018.7,018.5,000.0,026.9,020.3,14.2,0000.0,0007.17,0001.71,0001.30
2024-02-09 15:15:00,SystemResetWarning,0822.2,4.98,000.00,018.6,018.4,000.0,026.9,020.3,14.3,0000.0,0007.94,0001.76,0001.32
2024-02-09 15:16:00,SystemResetWarning,0822.2,5.00,000.00,018.6,018.3,000.0,026.9,020.2,14.3,0000.0,0008.19,0001.77,0001.32
2024-02-09 15:17:00,SystemResetWarning,0822.2,5.01,000.00,018.6,018.2,000.0,026.8,020.1,14.3,0000.0,0008.63,0001.76,0001.31
2024-02-09 15:18:00,SystemResetWarning,0822.3,5.00,000.00,018.5,018.1,000.0,026.8,020.1,14.3,0000.0,0009.07,0001.76,0001.29
2024-02-09 15:19:00,SystemResetWarning,0822.3,5.00,000.00,018.5,018.1,000.0,026.8,020.1,14.3,0000.0,0009.18,0001.75,0001.26
2024-02-09 15:20:00,SystemResetWarning,0822.4,5.01,000.00,018.5,018.0,000.0,026.8,020.0,14.4,0000.0,0009.61,0001.76,0001.24
2024-02-09 15:21:00,SystemResetWarning,0822.3,5.00,000.00,018.5,018.0,000.0,026.8,020.0,14.4,0000.0,0009.46,0001.71,0001.22
2024-02-09 15:22:00,SystemResetWarning,0822.4,5.00,000.00,018.4,017.9,000.0,026.8,020.0,14.5,0000.0,0009.15,0001.69,0001.21
2024-02-09 15:23:00,SystemResetWarning,0822.4,5.00,000.00,018.4,017.9,000.0,026.8,020.0,14.5,0000.0,0009.31,0001.71,0001.20
2024-02-09 15:24:00,SystemResetWarning,0822.4,5.00,000.00,018.4,017.8,000.0,026.9,020.0,14.6,0000.0,0009.21,0001.69,0001.16
2024-02-09 15:25:00,SystemResetWarning,0822.4,4.99,000.00,018.4,017.8,000.0,026.9,020.0,14.7,0000.0,0009.30,0001.71,0001.16
2024-02-09 15:26:00,SystemResetWarning,0822.4,5.00,000.00,018.4,017.8,000.0,026.9,020.0,14.7,0000.0,0008.79,0001.70,0001.16
2024-02-09 15:27:00,SystemResetWarning,0822.4,5.01,000.00,018.4,017.8,000.0,026.9,020.0,14.8,0000.0,0008.73,0001.74,0001.18
2024-02-09 15:28:00,SystemResetWarning,0822.4,5.01,000.00,018.3,017.7,000.0,026.9,020.0,15.2,0000.0,0008.29,0001.76,0001.22
2024-02-09 15:29:00,SystemResetWarning,0822.4,4.98,000.00,018.3,017.7,000.0,026.9,020.0,15.7,0000.0,0008.00,0001.82,0001.26
2024-02-09 15:30:00,SystemResetWarning,0822.5,5.00,000.00,018.3,017.7,000.0,026.9,020.0,15.7,0000.0,0008.11,0001.93,0001.32
2024-02-09 15:31:00,SystemResetWarning,0822.5,5.02,000.00,018.3,017.6,000.0,026.9,020.0,15.9,0000.0,0008.06,0001.97,0001.34
2024-02-09 15:32:00,SystemResetWarning,0822.4,5.00,000.00,018.3,017.6,000.0,026.9,020.0,16.1,0000.0,0008.04,0002.01,0001.37
2024-02-09 15:33:00,SystemResetWarning,0822.4,5.00,000.00,018.3,017.6,000.0,026.9,020.0,16.4,0000.0,0008.03,0002.08,0001.46
2024-02-09 15:34:00,SystemResetWarning,0822.4,4.99,000.00,018.3,017.6,000.0,026.9,020.0,16.7,0000.0,0007.84,0002.19,0001.59
2024-02-09 15:35:00,SystemResetWarning,0822.4,5.00,000.00,018.3,017.6,000.0,026.9,020.0,17.0,0000.0,0007.73,0002.33,0001.73
2024-02-09 15:36:00,SystemResetWarning,0822.6,5.01,000.00,018.4,018.1,000.0,027.0,020.4,17.2,0000.0,0007.44,0002.50,0001.89
2024-02-09 15:37:00,SystemResetWarning,0823.1,4.99,000.00,018.6,019.0,000.0,027.1,021.0,17.2,0000.0,0007.57,0002.64,0002.04
2024-02-09 15:38:00,SystemResetWarning,0823.1,4.98,000.00,018.8,019.2,000.0,027.1,021.0,17.0,0000.0,0008.05,0002.81,0002.22
2024-02-09 15:39:00,SystemResetWarning,0823.1,5.01,000.00,018.8,019.0,000.0,027.0,020.8,16.9,0000.0,0008.21,0003.03,0002.41
2024-02-09 15:40:00,SystemResetWarning,0822.9,5.00,000.00,018.8,018.8,000.0,027.0,020.6,17.0,0000.0,0008.51,0003.17,0002.63
2024-02-09 15:41:00,SystemResetWarning,0822.8,5.00,000.00,018.7,018.6,000.0,026.9,020.4,16.9,0000.0,0008.95,0003.27,0002.84
2024-02-09 15:42:00,SystemResetWarning,0822.8,5.01,000.00,018.7,018.5,000.0,026.9,020.3,16.9,0000.0,0008.70,0003.38,0003.06
2024-02-09 15:43:00,SystemResetWarning,0822.8,5.01,000.00,018.6,018.4,000.0,026.9,020.2,16.8,0000.0,0008.74,0003.49,0003.19
2024-02-09 15:44:00,SystemResetWarning,0822.5,5.00,000.00,018.6,018.2,000.0,026.9,020.2,17.0,0000.0,0009.03,0003.56,0003.26
2024-02-09 15:45:00,SystemResetWarning,0822.6,5.00,000.00,018.6,018.2,000.0,026.9,020.1,17.2,0000.0,0008.78,0003.65,0003.34
2024-02-09 15:46:00,SystemResetWarning,0822.9,4.99,000.00,018.5,018.1,000.0,026.8,020.1,17.2,0000.0,0008.90,0003.75,0003.41
2024-02-09 15:47:00,SystemResetWarning,0822.7,4.99,000.00,018.5,018.0,000.0,026.8,020.0,17.1,0000.0,0008.52,0003.80,0003.45
2024-02-09 15:48:00,SystemResetWarning,0823.0,5.00,000.00,018.5,017.9,000.0,026.8,020.0,17.2,0000.0,0008.54,0003.84,0003.49
2024-02-09 15:49:00,SystemResetWarning,0823.0,5.01,000.00,018.4,017.9,000.0,026.9,020.0,16.9,0000.0,0008.23,0003.88,0003.52
2024-02-09 15:50:00,SystemResetWarning,0823.1,5.01,000.00,018.4,017.8,000.0,026.9,020.0,17.1,0000.0,0008.14,0003.88,0003.54
2024-02-09 15:51:00,SystemResetWarning,0822.9,5.01,000.00,018.4,017.8,000.0,026.9,020.0,17.5,0000.0,0008.06,0003.90,0003.56
2024-02-09 15:52:00,SystemResetWarning,0823.1,4.99,000.00,018.4,017.8,000.0,026.9,020.0,17.3,0000.0,0007.50,0003.90,0003.56
2024-02-09 15:53:00,SystemResetWarning,0823.1,4.98,000.00,018.4,017.7,000.0,026.9,020.0,17.3,0000.0,0007.48,0003.92,0003.57
2024-02-09 15:54:00,SystemResetWarning,0823.0,5.00,000.00,018.4,017.7,000.0,026.9,020.0,17.4,0000.0,0007.55,0003.95,0003.58
2024-02-09 15:55:00,SystemResetWarning,0823.0,5.01,000.00,018.4,017.7,000.0,026.9,020.0,17.5,0000.0,0007.04,0003.98,0003.61
2024-02-09 15:56:00,SystemResetWarning,0823.1,5.01,000.00,018.4,017.7,000.0,026.9,020.0,17.6,0000.0,0007.06,0004.00,0003.63
2024-02-09 15:57:00,SystemResetWarning,0823.1,4.99,000.00,018.4,017.7,000.0,026.9,020.0,17.7,0000.0,0006.99,0003.98,0003.64
2024-02-09 15:58:00,SystemResetWarning,0823.0,5.00,000.00,018.3,017.6,000.0,026.9,020.0,17.7,0000.0,0007.07,0003.98,0003.67
2024-02-09 15:59:00,SystemResetWarning,0822.8,4.99,000.00,018.3,017.6,000.0,026.9,020.0,17.7,0000.0,0007.81,0004.00,0003.72
